This is the latest recevied weather packets stored in our database for station/object HA3YA-WX. If no packets are shown the sender has not sent any weather packets the latest 10 day(s).
| Time | Temp. | Humidity | Pressure | Rain* | Wind** | Luminosity | Snow |
|---|---|---|---|---|---|---|---|
| 1788270684 | 30° C | 57% | 1006.8 hPa | - | - | - | - |
| 1788270084 | 29.44° C | 56% | 1006.8 hPa | - | - | - | - |
| 1788269484 | 29.44° C | 57% | 1006.8 hPa | - | - | - | - |
| 1788268884 | 29.44° C | 57% | 1006 hPa | - | - | - | - |
| 1788268284 | 29.44° C | 56% | 1006 hPa | - | - | - | - |
| 1788267685 | 29.44° C | 58% | 1006 hPa | - | - | - | - |
| 1788267084 | 29.44° C | 57% | 1006 hPa | - | - | - | - |
| 1788266484 | 30° C | 58% | 1007 hPa | - | - | - | - |
| 1788265885 | 30.56° C | 57% | 1007 hPa | - | - | - | - |
| 1788265284 | 30.56° C | 55% | 1007 hPa | - | - | - | - |
| 1788264684 | 30.56° C | 52% | 1007 hPa | - | - | - | - |
| 1788264084 | 30.56° C | 55% | 1007 hPa | - | - | - | - |
| 1788263484 | 30° C | 55% | 1007.4 hPa | - | - | - | - |
| 1788262885 | 29.44° C | 57% | 1007 hPa | - | - | - | - |
| 1788262284 | 28.89° C | 60% | 1007 hPa | - | - | - | - |
| 1788261684 | 28.89° C | 58% | 1007 hPa | - | - | - | - |
| 1788261083 | 28.89° C | 58% | 1007 hPa | - | - | - | - |
| 1788260484 | 27.78° C | 62% | 1007 hPa | - | - | - | - |
| 1788259883 | 27.78° C | 60% | 1007.7 hPa | - | - | - | - |
| 1788259284 | 27.78° C | 62% | 1007 hPa | - | - | - | - |
| 1788258684 | 27.22° C | 62% | 1007 hPa | - | - | - | - |
| 1788258084 | 27.22° C | 63% | 1007 hPa | - | - | - | - |
| 1788257484 | 27.22° C | 63% | 1007 hPa | - | - | - | - |
| 1788256884 | 27.78° C | 63% | 1007 hPa | - | - | - | - |
| 1788256284 | 28.33° C | 64% | 1008 hPa | - | - | - | - |
* Rain since midnight (hover to see other rain measurements)
** Current wind speed in m/s (hover to see current wind gust speed)